#timestamp,LO_Frequency,Hit,StdDev 
1531846815.3,286047000.5,N
1531846835.1,286047000.9,N
1531846855.8,286047000.3,N
1531846875.7,286047000.3,N
1531846895.5,286047001.0,N
1531846915.4,286046998.1,N
1531846935.2,286046998.1,N
1531846955.0,286047000.2,N
1531846955.9,286047000.2,N
1531846975.8,286047000.1,N
1531846995.6,286047000.6,N
1531847015.4,286047001.1,N
1531847035.3,286046998.2,N
1531847055.1,286046998.3,N
1531847075.9,286046998.6,N
1531847095.7,286046998.6,N
1531847115.5,286047001.2,N
1531847135.4,286046998.2,N
1531847155.2,286046999.1,N
1531847175.0,286046999.0,N
1531847175.9,286046999.0,N
1531847195.8,286046998.3,N
1531847215.6,286046998.5,N
1531847235.5,286046998.6,N
1531847255.3,286046998.3,N
1531847275.1,286046999.0,N
1531847295.9,286046998.8,N
1531847315.1,286046998.6,N
1531847335.8,286046998.5,N
1531847355.7,286046999.4,N
1531847375.5,286046998.8,N
1531847395.4,286046998.2,N
1531847415.2,286046998.5,N
1531847435.0,286047001.1,N
1531847435.9,286047001.1,N
1531847455.8,286046998.1,N
1531847475.6,286047001.1,N
1531847495.4,286047000.9,N
1531847515.3,286047000.6,N
1531847535.1,286046998.8,N
1531847555.9,286047001.2,N
1531847575.7,286047000.9,N
1531847595.5,286046999.9,N
1531847615.4,286046998.1,N
1531847635.2,286046999.2,N
1531847655.0,286046999.0,N
1531847656.0,286046999.0,N
1531847675.8,286046999.1,N
1531847695.6,286046999.1,N
1531847715.5,286046999.6,N
1531847735.3,286046998.9,N
1531847755.1,286046997.2,N
1531847775.9,286046997.8,N
1531847795.7,286046997.3,N
1531847815.5,286046997.8,N
1531847835.4,286046996.9,N
1531847855.2,286046997.1,N
1531847875.1,286046997.6,N
1531847876.0,286046997.6,N
1531847895.8,286046997.6,N
1531847915.6,286046996.7,N
1531847935.5,286046997.5,N
1531847955.3,286046997.3,N
1531847975.1,286046997.2,N
1531847995.9,286046997.2,N
1531848015.7,286046997.8,N
1531848035.6,286046995.3,Y
1531848055.4,286046997.0,P
1531848075.2,286046996.8,P
1531848095.1,286046996.5,P
1531848096.0,286046996.5,Y
1531848115.8,286047002.8,P
1531848135.6,286047000.0,N
1531848155.5,286047000.5,N
1531848175.3,286047000.6,N
1531848195.2,286047000.0,N
1531848215.9,286047000.2,N
1531848235.7,286047001.0,N
1531848255.6,286046999.8,N
1531848275.4,286047000.3,N
1531848295.3,286047000.6,N
1531848315.1,286047000.6,N
1531848316.0,286047000.6,N
1531848335.8,286047000.0,N
1531848355.7,286047000.7,N
1531848375.5,286047001.1,N
1531848395.3,286047000.0,N
1531848415.2,286047000.1,N
1531848435.0,286047000.7,N
1531848435.9,286047000.7,N
1531848455.8,286047000.6,N
1531848475.6,286047001.0,N
1531848495.4,286047000.4,N
1531848515.3,286047000.5,N
1531848535.1,286047000.0,N
1531848555.8,286047001.1,N
1531848575.7,286047001.2,N
1531848595.5,286047000.7,N
1531848615.4,286046998.1,N
1531848635.2,286046999.0,N
1531848655.0,286047001.2,N
1531848655.9,286047001.2,N
1531848675.8,286047000.8,N
1531848695.6,286047000.6,N
1531848715.5,286047001.0,N
1531848735.3,286047000.4,N
1531848755.1,286047000.5,N
1531848775.9,286047002.8,Y
1531848795.7,286047000.0,P
1531848815.5,286046999.7,N
1531848835.4,286047000.2,N
1531848855.2,286047000.1,N
1531848875.1,286046998.5,Y
1531848876.0,286046998.5,P
1531848895.8,286047000.9,N
1531848915.6,286047000.3,N
1531848935.5,286046998.8,N
1531848955.3,286046998.1,N
1531848975.1,286046999.3,N
1531848995.9,286046998.4,N
1531849015.7,286046998.4,N
1531849035.6,286046998.6,N
1531849055.4,286047000.7,N
1531849075.2,286047001.0,N
1531849095.1,286047001.1,N
1531849096.0,286047001.1,N
1531849115.8,286047001.0,N
1531849135.6,286047000.7,N
1531849155.5,286046998.4,N
1531849175.3,286046998.1,N
1531849195.2,286046998.6,N
1531849215.9,286046999.3,N
1531849235.7,286046999.3,N
1531849255.6,286046998.7,N
1531849275.4,286046998.4,N
1531849295.2,286046998.7,N
1531849315.1,286046998.6,N
1531849316.0,286046998.6,N
1531849335.8,286046998.4,N
1531849355.7,286046998.9,N
1531849375.5,286046999.6,N
1531849395.3,286046998.3,N
1531849415.2,286046999.1,N
1531849435.0,286046999.0,N
1531849435.9,286046999.0,N
1531849455.8,286046996.9,Y
1531849475.6,286046998.7,P
1531849495.4,286046998.1,P
1531849515.3,286046999.1,N
1531849535.1,286046999.0,N
1531849555.8,286046999.2,N
1531849575.7,286046999.6,N
1531849595.5,286046996.5,Y
1531849615.4,286047000.8,P
1531849635.2,286047001.1,N
1531849655.0,286047000.6,N
1531849655.9,286047000.6,N
1531849675.8,286047000.9,N
1531849695.6,286046998.1,N
1531849715.4,286047000.5,N
1531849735.3,286046998.1,N
1531849755.1,286047000.0,N
1531849775.9,286047000.5,N
1531849795.7,286047000.6,N
1531849815.5,286047000.6,N
1531849835.4,286047001.1,N
1531849855.2,286046998.5,N
1531849875.1,286046998.1,N
1531849876.0,286046998.1,N
1531849895.8,286046998.1,N
1531849915.6,286046998.1,N
1531849935.5,286047000.5,N
1531849955.3,286047000.5,N
1531849975.2,286047000.6,N
1531849995.9,286046998.2,N
1531850015.7,286047001.2,N
1531850035.6,286047001.2,N
1531850055.4,286047000.9,N
1531850075.2,286047000.2,N
1531850095.1,286046999.9,N
1531850096.0,286046999.9,N
1531850115.8,286047000.0,N
1531850135.7,286047000.3,N
1531850155.5,286047000.3,N
1531850175.3,286046999.7,N
1531850195.2,286047002.3,N
1531850215.0,286047000.1,N
1531850215.9,286047000.1,N
1531850235.7,286047002.5,N
1531850255.6,286047000.1,N
1531850275.4,286047002.4,N
1531850295.3,286047002.2,N
1531850315.1,286047002.1,N
1531850316.0,286047002.1,N
1531850335.8,286047001.9,N
1531850355.7,286047002.2,N
1531850375.5,286047002.3,N
1531850395.3,286047002.8,N
